FALCON 9 DEB (45421 NORAD) Tracking and Keplerian Element Data

This shows tracking and keplerian element data for the satellite.

Feedback or suggestion? Click here.




ElementValue
Catalog45421
NameFALCON 9 DEB
Epoch Orbit477
Epoch Day104.25103158
Epoch Year2020
RAAN123.0124
Inclination52.9868
Eccentricity0.0020377
Argument of Perigee139.3284
Mean Anonmoly220.9287
Mean Motion16.37327814
Decay Rate0.05311274
L11 45421U 20019BP 20104.25103158 .05311274 12155-4 48150-3 0 9992
L22 45421 52.9868 123.0124 0020377 139.3284 220.9287 16.37327814 4778

Live tracking and technical data element details for FALCON 9 DEB (NORAD 45421). FALCON 9 DEB can be tracked NOW for your location showing map with azimuth and elevation plus other details from your city location.

Track the satellite on the map from your city or location and see movement details for azimuth, elevation, latitude, longitude, range, height, and movement on the map or in text.







IsCatalogInMostPopularTable: catalog: 45421, numindb: 23
Update: records affected: 1



GetName: 45421 FALCON 9 DEB

Hit Count: updated at: Mon, 06 Jul 2020 06:20:18 GMT